カタログに戻る

STARLINK-4109

運用中通信VLEO
NORAD 53268·PAYLOAD·🇺🇸 United States

打ち上げ Jul 24, 2022 から Cape Canaveral Space Force Station

Loading…

次のパス (今後24時間)

TLE

最新Source: CelesTrak SupGP

元期: Sep 14, 2026, 20:49 UTC

1 53268C 22086AC  26257.86784722  .00050830  00000+0  15017-2 0  2576
2 53268  53.1597  51.8576 0001236  63.1732 357.8777 15.34367635    10

AllMySatでSTARLINK-4109をリアルタイム追跡

Download on the App Store